Time,TemperatureF,DewpointF,PressureIn,WindDirection,WindDirectionDegrees,WindSpeedMPH,WindSpeedGustMPH,Humidity,HourlyPrecipIn,Conditions,Clouds,dailyrainin,SoftwareType,DateUTC
2013-05-17 00:02:00,65.0,61.7,29.97,SW,233,0.0,1.0,89,0.00,,,0.00,Wunderground v.1.15,2013-05-17 04:02:00,
2013-05-17 00:03:00,65.0,61.7,29.98,SW,233,0.0,1.0,89,0.00,,,0.00,Wunderground v.1.15,2013-05-17 04:03:00,
2013-05-17 00:04:00,65.0,61.7,29.98,SW,233,0.0,1.0,89,0.00,,,0.00,Wunderground v.1.15,2013-05-17 04:04:00,
2013-05-17 00:06:00,65.0,61.7,29.98,SW,233,0.0,1.0,89,0.00,,,0.00,Wunderground v.1.15,2013-05-17 04:06:00,
2013-05-17 00:07:00,65.0,61.7,29.98,SW,233,0.0,0.0,89,0.00,,,0.00,Wunderground v.1.15,2013-05-17 04:07:00,
2013-05-17 00:12:00,65.1,61.5,29.97,SW,233,1.0,1.0,88,0.00,,,0.00,Wunderground v.1.15,2013-05-17 04:12:00,
2013-05-17 00:17:00,65.2,61.6,29.97,SW,233,0.0,0.0,88,0.00,,,0.00,Wunderground v.1.15,2013-05-17 04:17:00,
2013-05-17 00:22:00,65.3,61.3,29.97,SW,233,0.0,0.0,87,0.00,,,0.00,Wunderground v.1.15,2013-05-17 04:22:00,
2013-05-17 00:27:00,65.4,61.4,29.97,SW,233,0.0,0.0,87,0.00,,,0.00,Wunderground v.1.15,2013-05-17 04:27:00,
2013-05-17 00:32:00,65.4,61.1,29.98,SW,233,0.0,0.0,86,0.00,,,0.00,Wunderground v.1.15,2013-05-17 04:32:00,
2013-05-17 00:37:00,65.4,61.1,29.97,SW,233,0.0,0.0,86,0.00,,,0.00,Wunderground v.1.15,2013-05-17 04:37:00,
2013-05-17 00:42:00,65.2,60.9,29.98,SW,233,0.0,0.0,86,0.00,,,0.00,Wunderground v.1.15,2013-05-17 04:42:00,
2013-05-17 00:47:00,65.2,60.9,29.98,SW,233,0.0,0.0,86,0.00,,,0.00,Wunderground v.1.15,2013-05-17 04:47:00,
2013-05-17 00:53:00,65.4,62.1,29.98,SW,233,0.0,0.0,89,0.00,,,0.00,Wunderground v.1.15,2013-05-17 04:53:00,
2013-05-17 00:58:00,65.1,61.5,29.98,SW,233,0.0,0.0,88,0.00,,,0.00,Wunderground v.1.15,2013-05-17 04:58:00,
2013-05-17 01:03:00,64.8,61.2,29.98,SW,233,0.0,0.0,88,0.00,,,0.00,Wunderground v.1.15,2013-05-17 05:03:00,
2013-05-17 01:08:00,64.4,60.8,29.98,SW,233,0.0,0.0,88,0.00,,,0.00,Wunderground v.1.15,2013-05-17 05:08:00,
2013-05-17 01:13:00,64.5,61.2,29.98,SW,233,0.0,0.0,89,0.00,,,0.00,Wunderground v.1.15,2013-05-17 05:13:00,
2013-05-17 01:19:00,64.8,61.5,29.98,SW,233,0.0,0.0,89,0.00,,,0.00,Wunderground v.1.15,2013-05-17 05:19:00,
2013-05-17 01:24:00,65.0,62.3,29.98,ENE,67,0.0,2.0,91,0.00,,,0.00,Wunderground v.1.15,2013-05-17 05:24:00,
2013-05-17 01:29:00,64.9,62.2,29.98,ENE,66,0.0,1.0,91,0.00,,,0.00,Wunderground v.1.15,2013-05-17 05:29:00,
2013-05-17 01:34:00,64.7,62.0,29.98,ENE,67,0.0,1.0,91,0.00,,,0.00,Wunderground v.1.15,2013-05-17 05:34:00,
2013-05-17 01:39:00,64.3,61.3,29.98,ENE,66,0.0,0.0,90,0.00,,,0.00,Wunderground v.1.15,2013-05-17 05:39:00,
2013-05-17 01:45:00,63.8,60.8,29.98,ENE,67,0.0,0.0,90,0.00,,,0.00,Wunderground v.1.15,2013-05-17 05:45:00,
2013-05-17 01:50:00,63.5,61.1,29.98,ENE,67,0.0,0.0,92,0.00,,,0.00,Wunderground v.1.15,2013-05-17 05:50:00,
2013-05-17 01:55:00,63.2,60.8,29.98,ENE,67,0.0,0.0,92,0.00,,,0.00,Wunderground v.1.15,2013-05-17 05:55:00,
2013-05-17 02:00:00,63.0,60.9,29.98,ENE,66,0.0,0.0,93,0.00,,,0.00,Wunderground v.1.15,2013-05-17 06:00:00,
2013-05-17 02:05:00,62.7,60.6,29.98,ENE,66,0.0,0.0,93,0.00,,,0.00,Wunderground v.1.15,2013-05-17 06:05:00,
2013-05-17 02:10:00,62.6,60.5,29.98,ENE,66,0.0,0.0,93,0.00,,,0.00,Wunderground v.1.15,2013-05-17 06:10:00,
2013-05-17 02:15:00,62.5,60.7,29.98,ENE,66,0.0,0.0,94,0.00,,,0.00,Wunderground v.1.15,2013-05-17 06:15:00,
2013-05-17 02:20:00,62.6,60.8,29.98,ENE,66,0.0,0.0,94,0.00,,,0.00,Wunderground v.1.15,2013-05-17 06:20:00,
2013-05-17 02:25:00,62.5,60.7,29.98,ENE,66,0.0,0.0,94,0.00,,,0.00,Wunderground v.1.15,2013-05-17 06:25:00,
2013-05-17 02:30:00,62.5,60.7,29.98,ENE,66,0.0,0.0,94,0.00,,,0.00,Wunderground v.1.15,2013-05-17 06:30:00,
2013-05-17 02:35:00,62.4,60.9,29.98,ENE,66,1.0,1.0,95,0.00,,,0.00,Wunderground v.1.15,2013-05-17 06:35:00,
2013-05-17 02:40:00,62.4,60.7,29.98,ENE,66,0.0,0.0,94,0.00,,,0.00,Wunderground v.1.15,2013-05-17 06:40:00,
2013-05-17 02:45:00,62.1,60.4,29.98,ENE,66,0.0,0.0,94,0.00,,,0.00,Wunderground v.1.15,2013-05-17 06:45:00,
2013-05-17 02:50:00,61.8,60.1,29.98,ENE,67,0.0,0.0,94,0.00,,,0.00,Wunderground v.1.15,2013-05-17 06:50:00,
2013-05-17 02:55:00,61.6,60.2,29.98,ENE,66,0.0,0.0,95,0.00,,,0.00,Wunderground v.1.15,2013-05-17 06:55:00,
2013-05-17 03:00:00,61.4,60.0,29.98,ENE,67,0.0,0.0,95,0.00,,,0.00,Wunderground v.1.15,2013-05-17 07:00:00,
2013-05-17 03:05:00,61.2,59.8,29.98,ENE,66,0.0,0.0,95,0.00,,,0.00,Wunderground v.1.15,2013-05-17 07:05:00,
2013-05-17 03:10:00,61.0,59.6,29.98,ENE,66,0.0,0.0,95,0.00,,,0.00,Wunderground v.1.15,2013-05-17 07:10:00,
2013-05-17 03:15:00,60.9,59.5,29.98,ENE,67,0.0,0.0,95,0.00,,,0.00,Wunderground v.1.15,2013-05-17 07:15:00,
2013-05-17 03:20:00,61.0,59.9,29.98,ENE,67,0.0,0.0,96,0.00,,,0.00,Wunderground v.1.15,2013-05-17 07:20:00,
2013-05-17 03:25:00,61.0,59.9,29.98,ENE,67,0.0,0.0,96,0.00,,,0.00,Wunderground v.1.15,2013-05-17 07:25:00,
2013-05-17 03:30:00,60.8,59.7,29.98,ENE,66,0.0,0.0,96,0.00,,,0.00,Wunderground v.1.15,2013-05-17 07:30:00,
2013-05-17 03:35:00,60.8,59.7,29.98,ENE,66,0.0,0.0,96,0.00,,,0.00,Wunderground v.1.15,2013-05-17 07:35:00,
2013-05-17 03:40:00,60.8,59.7,29.99,ENE,66,0.0,0.0,96,0.00,,,0.00,Wunderground v.1.15,2013-05-17 07:40:00,
2013-05-17 03:45:00,60.9,59.8,29.99,ENE,66,1.0,1.0,96,0.00,,,0.00,Wunderground v.1.15,2013-05-17 07:45:00,
2013-05-17 03:50:00,60.9,59.8,29.99,ENE,66,0.0,1.0,96,0.00,,,0.00,Wunderground v.1.15,2013-05-17 07:50:00,
2013-05-17 03:55:00,60.9,59.8,29.99,ENE,66,0.0,1.0,96,0.00,,,0.00,Wunderground v.1.15,2013-05-17 07:55:00,
2013-05-17 04:00:00,60.9,59.8,29.99,ENE,67,0.0,0.0,96,0.00,,,0.00,Wunderground v.1.15,2013-05-17 08:00:00,
2013-05-17 04:05:00,60.8,59.7,29.99,ENE,66,0.0,0.0,96,0.00,,,0.00,Wunderground v.1.15,2013-05-17 08:05:00,
2013-05-17 04:10:00,60.9,59.8,29.99,ENE,66,0.0,0.0,96,0.00,,,0.00,Wunderground v.1.15,2013-05-17 08:10:00,
2013-05-17 04:15:00,61.1,60.2,29.99,ENE,66,0.0,0.0,97,0.00,,,0.00,Wunderground v.1.15,2013-05-17 08:15:00,
2013-05-17 04:20:00,61.2,60.3,29.99,ENE,66,0.0,0.0,97,0.00,,,0.00,Wunderground v.1.15,2013-05-17 08:20:00,
2013-05-17 04:25:00,61.1,60.0,29.99,ENE,66,1.0,1.0,96,0.00,,,0.00,Wunderground v.1.15,2013-05-17 08:25:00,
2013-05-17 04:30:00,60.9,59.8,29.99,ENE,66,0.0,0.0,96,0.00,,,0.00,Wunderground v.1.15,2013-05-17 08:30:00,
2013-05-17 04:35:00,60.9,59.8,30.00,ENE,66,0.0,0.0,96,0.00,,,0.00,Wunderground v.1.15,2013-05-17 08:35:00,
2013-05-17 04:40:00,60.8,59.9,30.00,ENE,67,0.0,0.0,97,0.00,,,0.00,Wunderground v.1.15,2013-05-17 08:40:00,
2013-05-17 04:45:00,61.0,60.1,30.00,ENE,66,0.0,0.0,97,0.00,,,0.00,Wunderground v.1.15,2013-05-17 08:45:00,
2013-05-17 04:50:00,61.1,60.2,30.00,ENE,66,0.0,0.0,97,0.00,,,0.00,Wunderground v.1.15,2013-05-17 08:50:00,
2013-05-17 04:55:00,61.2,60.3,30.00,ENE,66,0.0,0.0,97,0.00,,,0.00,Wunderground v.1.15,2013-05-17 08:55:00,
2013-05-17 05:00:00,61.3,60.4,30.00,ENE,67,0.0,0.0,97,0.00,,,0.00,Wunderground v.1.15,2013-05-17 09:00:00,
2013-05-17 05:05:00,61.4,60.5,30.00,ENE,66,0.0,0.0,97,0.00,,,0.00,Wunderground v.1.15,2013-05-17 09:05:00,
2013-05-17 05:10:00,61.3,60.4,30.00,ENE,66,0.0,0.0,97,0.00,,,0.00,Wunderground v.1.15,2013-05-17 09:10:00,
2013-05-17 05:15:00,61.4,60.5,30.00,ENE,67,0.0,1.0,97,0.00,,,0.00,Wunderground v.1.15,2013-05-17 09:15:00,
2013-05-17 05:20:00,61.3,60.4,30.00,ENE,66,0.0,0.0,97,0.00,,,0.00,Wunderground v.1.15,2013-05-17 09:20:00,
2013-05-17 05:25:00,61.1,60.2,30.00,ENE,67,0.0,0.0,97,0.00,,,0.00,Wunderground v.1.15,2013-05-17 09:25:00,
2013-05-17 05:30:00,61.1,60.2,30.00,ENE,66,0.0,0.0,97,0.00,,,0.00,Wunderground v.1.15,2013-05-17 09:30:00,
2013-05-17 05:35:00,61.0,60.1,30.01,ENE,67,0.0,0.0,97,0.00,,,0.00,Wunderground v.1.15,2013-05-17 09:35:00,
2013-05-17 05:40:00,61.1,60.2,30.01,ENE,66,0.0,0.0,97,0.00,,,0.00,Wunderground v.1.15,2013-05-17 09:40:00,
2013-05-17 05:45:00,61.0,60.1,30.01,ENE,66,0.0,1.0,97,0.00,,,0.00,Wunderground v.1.15,2013-05-17 09:45:00,
2013-05-17 05:50:00,60.7,59.8,30.01,ENE,67,0.0,0.0,97,0.00,,,0.00,Wunderground v.1.15,2013-05-17 09:50:00,
2013-05-17 05:55:00,60.7,59.8,30.01,ENE,67,1.0,1.0,97,0.00,,,0.00,Wunderground v.1.15,2013-05-17 09:55:00,
2013-05-17 06:00:00,60.7,59.8,30.01,ENE,66,0.0,1.0,97,0.00,,,0.00,Wunderground v.1.15,2013-05-17 10:00:00,
2013-05-17 06:05:00,60.6,59.7,30.01,ENE,66,0.0,1.0,97,0.00,,,0.00,Wunderground v.1.15,2013-05-17 10:05:00,
2013-05-17 06:10:00,60.6,59.7,30.01,ENE,67,1.0,1.0,97,0.00,,,0.00,Wunderground v.1.15,2013-05-17 10:10:00,
2013-05-17 06:15:00,60.5,59.6,30.01,ENE,67,0.0,1.0,97,0.00,,,0.00,Wunderground v.1.15,2013-05-17 10:15:00,
2013-05-17 06:20:00,60.4,59.5,30.01,ENE,66,0.0,0.0,97,0.00,,,0.00,Wunderground v.1.15,2013-05-17 10:20:00,
2013-05-17 06:25:00,60.3,59.7,30.02,ENE,66,0.0,0.0,98,0.00,,,0.00,Wunderground v.1.15,2013-05-17 10:25:00,
2013-05-17 06:30:00,60.3,59.7,30.02,ENE,67,0.0,0.0,98,0.00,,,0.00,Wunderground v.1.15,2013-05-17 10:30:00,
2013-05-17 06:35:00,60.2,59.6,30.02,ENE,67,0.0,0.0,98,0.00,,,0.00,Wunderground v.1.15,2013-05-17 10:35:00,
2013-05-17 06:40:00,60.2,59.6,30.02,ENE,67,0.0,0.0,98,0.00,,,0.00,Wunderground v.1.15,2013-05-17 10:40:00,
2013-05-17 06:45:00,60.3,59.7,30.02,ENE,67,0.0,0.0,98,0.00,,,0.00,Wunderground v.1.15,2013-05-17 10:45:00,
2013-05-17 06:50:00,60.3,59.7,30.02,ENE,66,0.0,0.0,98,0.00,,,0.00,Wunderground v.1.15,2013-05-17 10:50:00,
2013-05-17 06:55:00,60.4,59.8,30.02,ENE,66,0.0,0.0,98,0.00,,,0.00,Wunderground v.1.15,2013-05-17 10:55:00,
2013-05-17 07:00:00,60.4,59.8,30.02,ENE,66,0.0,0.0,98,0.00,,,0.00,Wunderground v.1.15,2013-05-17 11:00:00,
2013-05-17 07:05:00,60.4,59.8,30.02,ENE,67,0.0,0.0,98,0.00,,,0.00,Wunderground v.1.15,2013-05-17 11:05:00,
2013-05-17 07:10:00,60.4,59.8,30.02,ENE,67,0.0,0.0,98,0.00,,,0.00,Wunderground v.1.15,2013-05-17 11:10:00,
2013-05-17 07:15:00,60.5,59.9,30.02,ENE,67,0.0,0.0,98,0.00,,,0.00,Wunderground v.1.15,2013-05-17 11:15:00,
2013-05-17 07:20:00,60.7,60.1,30.02,ENE,66,0.0,0.0,98,0.00,,,0.00,Wunderground v.1.15,2013-05-17 11:20:00,
2013-05-17 07:25:00,60.9,60.3,30.02,ENE,67,0.0,0.0,98,0.00,,,0.00,Wunderground v.1.15,2013-05-17 11:25:00,
2013-05-17 07:30:00,61.1,60.5,30.03,ENE,66,0.0,0.0,98,0.00,,,0.00,Wunderground v.1.15,2013-05-17 11:30:00,
2013-05-17 07:35:00,61.3,60.7,30.03,ENE,66,0.0,0.0,98,0.00,,,0.00,Wunderground v.1.15,2013-05-17 11:35:00,
2013-05-17 07:40:00,61.5,60.9,30.03,ENE,66,0.0,0.0,98,0.00,,,0.00,Wunderground v.1.15,2013-05-17 11:40:00,
2013-05-17 07:45:00,61.8,61.2,30.03,ENE,66,0.0,0.0,98,0.00,,,0.00,Wunderground v.1.15,2013-05-17 11:45:00,
2013-05-17 07:50:00,62.0,61.4,30.03,ENE,67,0.0,0.0,98,0.00,,,0.00,Wunderground v.1.15,2013-05-17 11:50:00,
2013-05-17 07:55:00,62.2,61.6,30.03,ENE,66,0.0,0.0,98,0.00,,,0.00,Wunderground v.1.15,2013-05-17 11:55:00,
2013-05-17 08:00:00,62.5,61.9,30.03,ENE,66,0.0,0.0,98,0.00,,,0.00,Wunderground v.1.15,2013-05-17 12:00:00,
2013-05-17 08:05:00,62.7,62.1,30.03,ENE,67,0.0,0.0,98,0.00,,,0.00,Wunderground v.1.15,2013-05-17 12:05:00,
2013-05-17 08:10:00,62.8,62.2,30.03,ENE,67,0.0,0.0,98,0.00,,,0.00,Wunderground v.1.15,2013-05-17 12:10:00,
2013-05-17 08:15:00,63.1,62.5,30.04,ENE,67,0.0,0.0,98,0.00,,,0.00,Wunderground v.1.15,2013-05-17 12:15:00,
2013-05-17 08:20:00,63.3,62.7,30.04,ENE,66,0.0,0.0,98,0.00,,,0.00,Wunderground v.1.15,2013-05-17 12:20:00,
2013-05-17 08:25:00,63.5,62.6,30.04,ENE,67,0.0,0.0,97,0.00,,,0.00,Wunderground v.1.15,2013-05-17 12:25:00,
2013-05-17 08:30:00,63.8,62.9,30.04,ENE,66,0.0,0.0,97,0.00,,,0.00,Wunderground v.1.15,2013-05-17 12:30:00,
2013-05-17 08:35:00,64.0,63.1,30.04,ENE,67,0.0,0.0,97,0.00,,,0.00,Wunderground v.1.15,2013-05-17 12:35:00,
2013-05-17 08:40:00,64.1,63.2,30.04,West,269,0.0,1.0,97,0.00,,,0.00,Wunderground v.1.15,2013-05-17 12:40:00,
2013-05-17 08:45:00,64.3,63.4,30.04,West,269,0.0,1.0,97,0.00,,,0.00,Wunderground v.1.15,2013-05-17 12:45:00,
2013-05-17 08:50:00,64.7,63.8,30.04,West,269,0.0,0.0,97,0.00,,,0.00,Wunderground v.1.15,2013-05-17 12:50:00,
2013-05-17 08:55:00,65.1,64.2,30.04,West,269,0.0,1.0,97,0.00,,,0.00,Wunderground v.1.15,2013-05-17 12:55:00,
2013-05-17 09:00:00,65.3,63.8,30.04,West,269,0.0,1.0,95,0.00,,,0.00,Wunderground v.1.15,2013-05-17 13:00:00,
2013-05-17 09:05:00,65.6,64.1,30.04,West,260,1.0,1.0,95,0.00,,,0.00,Wunderground v.1.15,2013-05-17 13:05:00,
2013-05-17 09:10:00,65.9,64.1,30.04,West,274,1.0,2.0,94,0.00,,,0.00,Wunderground v.1.15,2013-05-17 13:10:00,
2013-05-17 09:15:00,66.2,64.4,30.04,WSW,252,0.0,2.0,94,0.00,,,0.00,Wunderground v.1.15,2013-05-17 13:15:00,
2013-05-17 09:20:00,66.6,64.5,30.04,West,265,1.0,2.0,93,0.00,,,0.00,Wunderground v.1.15,2013-05-17 13:20:00,
2013-05-17 09:25:00,67.0,64.6,30.05,West,261,2.0,2.0,92,0.00,,,0.00,Wunderground v.1.15,2013-05-17 13:25:00,
2013-05-17 09:30:00,67.2,64.5,30.05,WSW,248,0.0,1.0,91,0.00,,,0.00,Wunderground v.1.15,2013-05-17 13:30:00,
2013-05-17 09:35:00,67.6,64.9,30.05,WSW,248,0.0,1.0,91,0.00,,,0.00,Wunderground v.1.15,2013-05-17 13:35:00,
2013-05-17 09:40:00,67.8,64.4,30.05,WSW,252,1.0,2.0,89,0.00,,,0.00,Wunderground v.1.15,2013-05-17 13:40:00,
2013-05-17 09:45:00,68.0,64.3,30.05,WSW,252,0.0,2.0,88,0.00,,,0.00,Wunderground v.1.15,2013-05-17 13:45:00,
2013-05-17 09:50:00,68.2,64.2,30.05,West,269,0.0,1.0,87,0.00,,,0.00,Wunderground v.1.15,2013-05-17 13:50:00,
2013-05-17 09:55:00,68.4,64.0,30.05,West,280,0.0,1.0,86,0.00,,,0.00,Wunderground v.1.15,2013-05-17 13:55:00,
2013-05-17 10:00:00,68.8,64.4,30.05,West,280,0.0,0.0,86,0.00,,,0.00,Wunderground v.1.15,2013-05-17 14:00:00,
2013-05-17 10:05:00,69.4,64.7,30.05,West,280,0.0,0.0,85,0.00,,,0.00,Wunderground v.1.15,2013-05-17 14:05:00,
2013-05-17 10:10:00,69.9,64.5,30.05,WSW,242,1.0,2.0,83,0.00,,,0.00,Wunderground v.1.15,2013-05-17 14:10:00,
2013-05-17 10:15:00,69.8,64.1,30.05,West,266,2.0,2.0,82,0.00,,,0.00,Wunderground v.1.15,2013-05-17 14:15:00,
2013-05-17 10:20:00,69.9,63.8,30.05,WSW,254,0.0,1.0,81,0.00,,,0.00,Wunderground v.1.15,2013-05-17 14:20:00,
2013-05-17 10:25:00,70.1,64.0,30.05,West,259,0.0,1.0,81,0.00,,,0.00,Wunderground v.1.15,2013-05-17 14:25:00,
2013-05-17 10:30:00,70.3,64.5,30.05,West,269,1.0,1.0,82,0.00,,,0.00,Wunderground v.1.15,2013-05-17 14:30:00,
2013-05-17 10:35:00,70.5,64.7,30.05,West,270,0.0,1.0,82,0.00,,,0.00,Wunderground v.1.15,2013-05-17 14:35:00,
2013-05-17 10:40:00,70.8,64.7,30.05,West,264,0.0,2.0,81,0.00,,,0.00,Wunderground v.1.15,2013-05-17 14:40:00,
2013-05-17 10:45:00,71.0,64.5,30.05,West,271,0.0,2.0,80,0.00,,,0.00,Wunderground v.1.15,2013-05-17 14:45:00,
2013-05-17 10:50:00,71.1,65.0,30.05,West,271,0.0,0.0,81,0.00,,,0.00,Wunderground v.1.15,2013-05-17 14:50:00,
2013-05-17 10:56:00,71.7,65.6,30.05,West,271,0.0,0.0,81,0.00,,,0.00,Wunderground v.1.15,2013-05-17 14:56:00,
2013-05-17 11:01:00,72.4,65.5,30.05,SE,124,0.0,1.0,79,0.00,,,0.00,Wunderground v.1.15,2013-05-17 15:01:00,
2013-05-17 11:06:00,72.6,65.3,30.05,SE,141,0.0,1.0,78,0.00,,,0.00,Wunderground v.1.15,2013-05-17 15:06:00,
2013-05-17 11:11:00,72.3,65.1,30.05,West,274,0.0,1.0,78,0.00,,,0.00,Wunderground v.1.15,2013-05-17 15:11:00,
2013-05-17 11:16:00,72.3,65.4,30.05,West,274,0.0,1.0,79,0.00,,,0.00,Wunderground v.1.15,2013-05-17 15:16:00,
2013-05-17 11:21:00,72.6,66.1,30.05,West,273,0.0,1.0,80,0.00,,,0.00,Wunderground v.1.15,2013-05-17 15:21:00,
2013-05-17 11:26:00,72.9,65.6,30.05,West,270,0.0,2.0,78,0.00,,,0.00,Wunderground v.1.15,2013-05-17 15:26:00,
2013-05-17 11:31:00,73.4,66.5,30.05,West,276,2.0,2.0,79,0.00,,,0.00,Wunderground v.1.15,2013-05-17 15:31:00,
2013-05-17 11:36:00,73.8,66.1,30.05,West,264,6.0,6.0,77,0.00,,,0.00,Wunderground v.1.15,2013-05-17 15:36:00,
2013-05-17 11:41:00,74.0,64.4,30.05,West,273,2.0,7.0,72,0.00,,,0.00,Wunderground v.1.15,2013-05-17 15:41:00,
2013-05-17 11:46:00,74.2,64.6,30.05,West,269,4.0,7.0,72,0.00,,,0.00,Wunderground v.1.15,2013-05-17 15:46:00,
2013-05-17 11:51:00,74.4,64.8,30.05,West,267,3.0,7.0,72,0.00,,,0.00,Wunderground v.1.15,2013-05-17 15:51:00,
2013-05-17 11:56:00,74.4,65.2,30.05,WNW,291,3.0,8.0,73,0.00,,,0.00,Wunderground v.1.15,2013-05-17 15:56:00,
2013-05-17 12:01:00,74.7,65.5,30.05,West,276,6.0,8.0,73,0.00,,,0.00,Wunderground v.1.15,2013-05-17 16:01:00,
2013-05-17 12:06:00,75.1,65.5,30.05,WNW,282,1.0,8.0,72,0.00,,,0.00,Wunderground v.1.15,2013-05-17 16:06:00,
2013-05-17 12:11:00,75.8,65.3,30.05,SW,225,1.0,8.0,70,0.00,,,0.00,Wunderground v.1.15,2013-05-17 16:11:00,
2013-05-17 12:16:00,76.3,66.2,30.05,West,262,3.0,8.0,71,0.00,,,0.00,Wunderground v.1.15,2013-05-17 16:16:00,
2013-05-17 12:21:00,76.9,66.0,30.04,West,271,6.0,9.0,69,0.00,,,0.00,Wunderground v.1.15,2013-05-17 16:21:00,
2013-05-17 12:26:00,77.1,66.6,30.04,West,267,7.0,9.0,70,0.00,,,0.00,Wunderground v.1.15,2013-05-17 16:26:00,
2013-05-17 12:31:00,77.1,66.6,30.04,WSW,257,3.0,8.0,70,0.00,,,0.00,Wunderground v.1.15,2013-05-17 16:31:00,
2013-05-17 12:36:00,77.7,67.1,30.04,WSW,250,3.0,8.0,70,0.00,,,0.00,Wunderground v.1.15,2013-05-17 16:36:00,
2013-05-17 12:41:00,77.9,66.1,30.04,WSW,239,1.0,6.0,67,0.00,,,0.00,Wunderground v.1.15,2013-05-17 16:41:00,
2013-05-17 12:46:00,77.5,66.1,30.04,NW,321,4.0,10.0,68,0.00,,,0.00,Wunderground v.1.15,2013-05-17 16:46:00,
2013-05-17 12:51:00,77.2,66.2,30.04,WNW,288,5.0,8.0,69,0.00,,,0.00,Wunderground v.1.15,2013-05-17 16:51:00,
2013-05-17 12:56:00,77.0,65.2,30.03,West,281,3.0,8.0,67,0.00,,,0.00,Wunderground v.1.15,2013-05-17 16:56:00,
2013-05-17 13:01:00,77.4,66.0,30.03,WNW,293,6.0,7.0,68,0.00,,,0.00,Wunderground v.1.15,2013-05-17 17:01:00,
2013-05-17 13:06:00,77.3,65.5,30.03,NW,319,4.0,10.0,67,0.00,,,0.00,Wunderground v.1.15,2013-05-17 17:06:00,
2013-05-17 13:11:00,77.4,65.1,30.03,West,263,6.0,10.0,66,0.00,,,0.00,Wunderground v.1.15,2013-05-17 17:11:00,
2013-05-17 13:16:00,77.8,64.2,30.03,WSW,252,8.0,10.0,63,0.00,,,0.00,Wunderground v.1.15,2013-05-17 17:16:00,
2013-05-17 13:21:00,77.7,64.1,30.03,West,266,9.0,12.0,63,0.00,,,0.00,Wunderground v.1.15,2013-05-17 17:21:00,
2013-05-17 13:26:00,77.8,64.6,30.03,WSW,245,6.0,12.0,64,0.00,,,0.00,Wunderground v.1.15,2013-05-17 17:26:00,
2013-05-17 13:31:00,77.9,66.9,30.03,West,262,2.0,8.0,69,0.00,,,0.00,Wunderground v.1.15,2013-05-17 17:31:00,
2013-05-17 13:36:00,77.9,64.3,30.02,West,259,8.0,10.0,63,0.00,,,0.00,Wunderground v.1.15,2013-05-17 17:36:00,
2013-05-17 13:41:00,78.0,64.8,30.02,WSW,256,3.0,9.0,64,0.00,,,0.00,Wunderground v.1.15,2013-05-17 17:41:00,
2013-05-17 13:46:00,78.3,64.7,30.02,WSW,246,4.0,9.0,63,0.00,,,0.00,Wunderground v.1.15,2013-05-17 17:46:00,
2013-05-17 13:51:00,78.5,64.9,30.02,WNW,290,5.0,8.0,63,0.00,,,0.00,Wunderground v.1.15,2013-05-17 17:51:00,
2013-05-17 13:56:00,78.8,65.1,30.02,WNW,295,6.0,9.0,63,0.00,,,0.00,Wunderground v.1.15,2013-05-17 17:56:00,
2013-05-17 14:01:00,79.4,66.2,30.02,West,260,2.0,8.0,64,0.00,,,0.00,Wunderground v.1.15,2013-05-17 18:01:00,
2013-05-17 14:06:00,79.9,65.2,30.01,WSW,257,5.0,8.0,61,0.00,,,0.00,Wunderground v.1.15,2013-05-17 18:06:00,
2013-05-17 14:11:00,80.3,66.6,30.01,West,267,4.0,9.0,63,0.00,,,0.00,Wunderground v.1.15,2013-05-17 18:11:00,
2013-05-17 14:16:00,80.6,66.4,30.01,West,281,2.0,12.0,62,0.00,,,0.00,Wunderground v.1.15,2013-05-17 18:16:00,
2013-05-17 14:21:00,80.7,66.0,30.01,SW,226,7.0,10.0,61,0.00,,,0.00,Wunderground v.1.15,2013-05-17 18:21:00,
2013-05-17 14:26:00,80.5,65.3,30.01,West,280,9.0,10.0,60,0.00,,,0.00,Wunderground v.1.15,2013-05-17 18:26:00,
2013-05-17 14:31:00,80.1,65.0,30.01,WSW,252,3.0,11.0,60,0.00,,,0.00,Wunderground v.1.15,2013-05-17 18:31:00,
2013-05-17 14:36:00,79.8,65.2,30.00,WSW,239,7.0,11.0,61,0.00,,,0.00,Wunderground v.1.15,2013-05-17 18:36:00,
2013-05-17 14:41:00,80.0,64.4,30.00,SW,233,5.0,13.0,59,0.00,,,0.00,Wunderground v.1.15,2013-05-17 18:41:00,
2013-05-17 14:46:00,80.5,66.3,30.00,WSW,249,8.0,13.0,62,0.00,,,0.00,Wunderground v.1.15,2013-05-17 18:46:00,
2013-05-17 14:51:00,80.3,65.1,30.00,South,176,2.0,13.0,60,0.00,,,0.00,Wunderground v.1.15,2013-05-17 18:51:00,
2013-05-17 14:56:00,80.5,65.3,30.00,WSW,258,8.0,13.0,60,0.00,,,0.00,Wunderground v.1.15,2013-05-17 18:56:00,
2013-05-17 15:01:00,80.2,64.6,30.00,West,266,7.0,10.0,59,0.00,,,0.00,Wunderground v.1.15,2013-05-17 19:01:00,
2013-05-17 15:06:00,80.3,66.1,29.99,WSW,255,8.0,10.0,62,0.00,,,0.00,Wunderground v.1.15,2013-05-17 19:06:00,
2013-05-17 15:11:00,80.2,64.1,29.99,SW,232,9.0,12.0,58,0.00,,,0.00,Wunderground v.1.15,2013-05-17 19:11:00,
2013-05-17 15:16:00,80.0,64.4,29.99,WSW,245,8.0,12.0,59,0.00,,,0.00,Wunderground v.1.15,2013-05-17 19:16:00,
2013-05-17 15:21:00,79.7,63.6,29.99,WSW,253,6.0,10.0,58,0.00,,,0.00,Wunderground v.1.15,2013-05-17 19:21:00,
2013-05-17 15:26:00,79.3,63.2,29.99,West,262,9.0,11.0,58,0.00,,,0.00,Wunderground v.1.15,2013-05-17 19:26:00,
2013-05-17 15:31:00,79.0,63.4,29.99,WSW,256,5.0,14.0,59,0.00,,,0.00,Wunderground v.1.15,2013-05-17 19:31:00,
2013-05-17 15:36:00,79.0,64.4,29.99,WSW,250,4.0,14.0,61,0.00,,,0.00,Wunderground v.1.15,2013-05-17 19:36:00,
2013-05-17 15:41:00,79.0,64.9,29.99,SW,226,3.0,8.0,62,0.00,,,0.00,Wunderground v.1.15,2013-05-17 19:41:00,
2013-05-17 15:46:00,79.2,65.1,29.98,West,259,5.0,8.0,62,0.00,,,0.00,Wunderground v.1.15,2013-05-17 19:46:00,
2013-05-17 15:51:00,79.3,64.2,29.98,WSW,245,3.0,9.0,60,0.00,,,0.00,Wunderground v.1.15,2013-05-17 19:51:00,
2013-05-17 15:56:00,79.4,65.7,29.98,West,262,4.0,9.0,63,0.00,,,0.00,Wunderground v.1.15,2013-05-17 19:56:00,
2013-05-17 16:01:00,79.4,64.3,29.98,WSW,258,8.0,11.0,60,0.00,,,0.00,Wunderground v.1.15,2013-05-17 20:01:00,
2013-05-17 16:06:00,79.1,64.5,29.98,WSW,247,4.0,11.0,61,0.00,,,0.00,Wunderground v.1.15,2013-05-17 20:06:00,
2013-05-17 16:11:00,78.9,64.8,29.98,West,262,3.0,8.0,62,0.00,,,0.00,Wunderground v.1.15,2013-05-17 20:11:00,
2013-05-17 16:16:00,79.1,64.5,29.98,West,262,4.0,8.0,61,0.00,,,0.00,Wunderground v.1.15,2013-05-17 20:16:00,
2013-05-17 16:21:00,79.2,64.1,29.98,West,276,4.0,10.0,60,0.00,,,0.00,Wunderground v.1.15,2013-05-17 20:21:00,
2013-05-17 16:26:00,79.4,65.2,29.98,West,270,9.0,10.0,62,0.00,,,0.00,Wunderground v.1.15,2013-05-17 20:26:00,
2013-05-17 16:31:00,79.6,64.0,29.97,West,270,8.0,15.0,59,0.00,,,0.00,Wunderground v.1.15,2013-05-17 20:31:00,
2013-05-17 16:36:00,79.9,64.8,29.97,WSW,251,6.0,15.0,60,0.00,,,0.00,Wunderground v.1.15,2013-05-17 20:36:00,
2013-05-17 16:41:00,80.3,65.6,29.97,West,280,9.0,9.0,61,0.00,,,0.00,Wunderground v.1.15,2013-05-17 20:41:00,
2013-05-17 16:46:00,80.3,64.7,29.97,West,259,7.0,13.0,59,0.00,,,0.00,Wunderground v.1.15,2013-05-17 20:46:00,
2013-05-17 16:51:00,80.2,65.5,29.97,WNW,287,6.0,9.0,61,0.00,,,0.00,Wunderground v.1.15,2013-05-17 20:51:00,
2013-05-17 16:56:00,79.9,65.2,29.97,WSW,255,6.0,9.0,61,0.00,,,0.00,Wunderground v.1.15,2013-05-17 20:56:00,
2013-05-17 17:01:00,79.6,65.9,29.97,WSW,253,4.0,6.0,63,0.00,,,0.00,Wunderground v.1.15,2013-05-17 21:01:00,
2013-05-17 17:06:00,79.3,65.6,29.96,WNW,287,3.0,6.0,63,0.00,,,0.00,Wunderground v.1.15,2013-05-17 21:06:00,
2013-05-17 17:11:00,79.2,65.5,29.96,WSW,258,5.0,5.0,63,0.00,,,0.00,Wunderground v.1.15,2013-05-17 21:11:00,
2013-05-17 17:16:00,79.0,64.9,29.96,West,263,5.0,6.0,62,0.00,,,0.00,Wunderground v.1.15,2013-05-17 21:16:00,
2013-05-17 17:21:00,79.0,64.9,29.96,WSW,243,3.0,6.0,62,0.00,,,0.00,Wunderground v.1.15,2013-05-17 21:21:00,
2013-05-17 17:26:00,78.9,65.2,29.96,SSW,201,1.0,6.0,63,0.00,,,0.00,Wunderground v.1.15,2013-05-17 21:26:00,
2013-05-17 17:31:00,78.8,66.0,29.96,WSW,250,1.0,4.0,65,0.00,,,0.00,Wunderground v.1.15,2013-05-17 21:31:00,
2013-05-17 17:36:00,78.6,65.4,29.96,WSW,245,2.0,5.0,64,0.00,,,0.00,Wunderground v.1.15,2013-05-17 21:36:00,
2013-05-17 17:41:00,78.5,65.8,29.96,WSW,248,2.0,3.0,65,0.00,,,0.00,Wunderground v.1.15,2013-05-17 21:41:00,
2013-05-17 17:46:00,78.3,64.2,29.96,West,266,5.0,7.0,62,0.00,,,0.00,Wunderground v.1.15,2013-05-17 21:46:00,
2013-05-17 17:51:00,78.2,65.0,29.96,West,269,4.0,5.0,64,0.00,,,0.00,Wunderground v.1.15,2013-05-17 21:51:00,
2013-05-17 17:56:00,78.0,64.4,29.96,West,278,4.0,6.0,63,0.00,,,0.00,Wunderground v.1.15,2013-05-17 21:56:00,
2013-05-17 18:01:00,78.0,64.4,29.96,WSW,258,3.0,7.0,63,0.00,,,0.00,Wunderground v.1.15,2013-05-17 22:01:00,
2013-05-17 18:06:00,77.9,65.2,29.96,West,262,3.0,4.0,65,0.00,,,0.00,Wunderground v.1.15,2013-05-17 22:06:00,
2013-05-17 18:11:00,77.6,65.3,29.96,WSW,245,5.0,5.0,66,0.00,,,0.00,Wunderground v.1.15,2013-05-17 22:11:00,
2013-05-17 18:16:00,77.5,64.8,29.96,WSW,257,3.0,3.0,65,0.00,,,0.00,Wunderground v.1.15,2013-05-17 22:16:00,
2013-05-17 18:21:00,77.4,65.6,29.96,WSW,245,1.0,4.0,67,0.00,,,0.00,Wunderground v.1.15,2013-05-17 22:21:00,
2013-05-17 18:27:00,77.1,65.3,29.96,WSW,240,0.0,2.0,67,0.00,,,0.00,Wunderground v.1.15,2013-05-17 22:27:00,
2013-05-17 18:32:00,77.1,65.3,29.96,West,266,4.0,5.0,67,0.00,,,0.00,Wunderground v.1.15,2013-05-17 22:32:00,
2013-05-17 18:37:00,77.1,65.3,29.96,WNW,286,2.0,3.0,67,0.00,,,0.00,Wunderground v.1.15,2013-05-17 22:37:00,
2013-05-17 18:42:00,76.9,65.5,29.96,West,274,2.0,4.0,68,0.00,,,0.00,Wunderground v.1.15,2013-05-17 22:42:00,
2013-05-17 18:47:00,76.7,64.0,29.96,West,266,6.0,6.0,65,0.00,,,0.00,Wunderground v.1.15,2013-05-17 22:47:00,
2013-05-17 18:52:00,76.9,63.8,29.96,West,259,6.0,9.0,64,0.00,,,0.00,Wunderground v.1.15,2013-05-17 22:52:00,
2013-05-17 18:57:00,77.0,63.0,29.96,West,263,4.0,7.0,62,0.00,,,0.00,Wunderground v.1.15,2013-05-17 22:57:00,
2013-05-17 19:02:00,77.0,62.5,29.96,West,260,8.0,10.0,61,0.00,,,0.00,Wunderground v.1.15,2013-05-17 23:02:00,
2013-05-17 19:06:00,76.8,62.8,29.96,West,270,2.0,7.0,62,0.00,,,0.00,Wunderground v.1.15,2013-05-17 23:06:00,
2013-05-17 19:11:00,76.6,61.7,29.96,SW,236,8.0,12.0,60,0.00,,,0.00,Wunderground v.1.15,2013-05-17 23:11:00,
2013-05-17 19:16:00,76.6,61.2,29.96,WSW,255,7.0,7.0,59,0.00,,,0.00,Wunderground v.1.15,2013-05-17 23:16:00,
2013-05-17 19:21:00,76.6,61.2,29.96,WSW,248,7.0,10.0,59,0.00,,,0.00,Wunderground v.1.15,2013-05-17 23:21:00,
2013-05-17 19:26:00,76.5,60.6,29.96,WSW,257,5.0,7.0,58,0.00,,,0.00,Wunderground v.1.15,2013-05-17 23:26:00,
2013-05-17 19:31:00,76.5,60.6,29.96,West,260,9.0,9.0,58,0.00,,,0.00,Wunderground v.1.15,2013-05-17 23:31:00,
2013-05-17 19:36:00,76.5,60.6,29.96,WSW,243,6.0,7.0,58,0.00,,,0.00,Wunderground v.1.15,2013-05-17 23:36:00,
2013-05-17 19:42:00,76.3,59.9,29.97,WSW,257,9.0,9.0,57,0.00,,,0.00,Wunderground v.1.15,2013-05-17 23:42:00,
2013-05-17 19:47:00,76.3,59.9,29.97,WSW,248,3.0,6.0,57,0.00,,,0.00,Wunderground v.1.15,2013-05-17 23:47:00,
2013-05-17 19:52:00,76.2,60.3,29.97,West,260,5.0,6.0,58,0.00,,,0.00,Wunderground v.1.15,2013-05-17 23:52:00,
2013-05-17 19:57:00,76.1,60.2,29.97,West,260,5.0,5.0,58,0.00,,,0.00,Wunderground v.1.15,2013-05-17 23:57:00,
2013-05-17 20:02:00,76.0,60.2,29.97,WSW,257,7.0,7.0,58,0.00,,,0.00,Wunderground v.1.15,2013-05-18 00:02:00,
2013-05-17 20:07:00,76.0,59.7,29.97,West,260,8.0,8.0,57,0.00,,,0.00,Wunderground v.1.15,2013-05-18 00:07:00,
2013-05-17 20:12:00,75.9,60.1,29.97,WSW,243,3.0,9.0,58,0.00,,,0.00,Wunderground v.1.15,2013-05-18 00:12:00,
2013-05-17 20:17:00,75.7,60.4,29.97,WSW,239,3.0,4.0,59,0.00,,,0.00,Wunderground v.1.15,2013-05-18 00:17:00,
2013-05-17 20:22:00,75.4,60.5,29.97,West,266,2.0,5.0,60,0.00,,,0.00,Wunderground v.1.15,2013-05-18 00:22:00,
2013-05-17 20:27:00,75.2,60.4,29.97,West,271,2.0,4.0,60,0.00,,,0.00,Wunderground v.1.15,2013-05-18 00:27:00,
2013-05-17 20:32:00,75.0,60.6,29.97,WSW,255,3.0,5.0,61,0.00,,,0.00,Wunderground v.1.15,2013-05-18 00:32:00,
2013-05-17 20:37:00,74.6,61.2,29.97,West,267,2.0,3.0,63,0.00,,,0.00,Wunderground v.1.15,2013-05-18 00:37:00,
2013-05-17 20:42:00,74.3,60.9,29.97,WSW,250,1.0,3.0,63,0.00,,,0.00,Wunderground v.1.15,2013-05-18 00:42:00,
2013-05-17 20:47:00,74.2,60.8,29.97,WSW,258,0.0,1.0,63,0.00,,,0.00,Wunderground v.1.15,2013-05-18 00:47:00,
2013-05-17 20:52:00,74.0,60.6,29.97,WSW,239,1.0,4.0,63,0.00,,,0.00,Wunderground v.1.15,2013-05-18 00:52:00,
2013-05-17 20:57:00,73.8,60.9,29.97,SW,225,1.0,1.0,64,0.00,,,0.00,Wunderground v.1.15,2013-05-18 00:57:00,
2013-05-17 21:02:00,73.6,61.1,29.97,WSW,246,2.0,3.0,65,0.00,,,0.00,Wunderground v.1.15,2013-05-18 01:02:00,
2013-05-17 21:07:00,73.3,60.8,29.97,West,267,2.0,2.0,65,0.00,,,0.00,Wunderground v.1.15,2013-05-18 01:07:00,
2013-05-17 21:12:00,73.2,62.4,29.98,NW,316,2.0,3.0,69,0.00,,,0.00,Wunderground v.1.15,2013-05-18 01:12:00,
2013-05-17 21:17:00,72.3,62.4,29.98,NW,316,1.0,2.0,71,0.00,,,0.00,Wunderground v.1.15,2013-05-18 01:17:00,
2013-05-17 21:22:00,71.8,62.3,29.98,West,276,2.0,3.0,72,0.00,,,0.00,Wunderground v.1.15,2013-05-18 01:22:00,
2013-05-17 21:27:00,72.0,62.5,29.98,West,273,2.0,3.0,72,0.00,,,0.00,Wunderground v.1.15,2013-05-18 01:27:00,
2013-05-17 21:32:00,72.1,62.6,29.99,West,273,3.0,3.0,72,0.00,,,0.00,Wunderground v.1.15,2013-05-18 01:32:00,
2013-05-17 21:37:00,72.0,62.9,29.99,West,278,1.0,2.0,73,0.00,,,0.00,Wunderground v.1.15,2013-05-18 01:37:00,
2013-05-17 21:42:00,71.8,62.7,29.99,West,260,3.0,3.0,73,0.00,,,0.00,Wunderground v.1.15,2013-05-18 01:42:00,
2013-05-17 21:47:00,71.8,63.4,30.00,West,260,4.0,4.0,75,0.00,,,0.00,Wunderground v.1.15,2013-05-18 01:47:00,
2013-05-17 21:52:00,71.5,63.5,30.00,WSW,249,1.0,5.0,76,0.00,,,0.00,Wunderground v.1.15,2013-05-18 01:52:00,
2013-05-17 21:57:00,71.1,63.1,30.00,WSW,253,1.0,2.0,76,0.00,,,0.00,Wunderground v.1.15,2013-05-18 01:57:00,
2013-05-17 22:02:00,70.9,63.3,30.00,WSW,255,0.0,2.0,77,0.00,,,0.00,Wunderground v.1.15,2013-05-18 02:02:00,
2013-05-17 22:07:00,70.6,63.4,30.00,SW,226,0.0,1.0,78,0.00,,,0.00,Wunderground v.1.15,2013-05-18 02:07:00,
2013-05-17 22:12:00,70.3,63.5,30.00,WSW,252,0.0,2.0,79,0.00,,,0.00,Wunderground v.1.15,2013-05-18 02:12:00,
2013-05-17 22:17:00,70.1,64.0,30.00,WSW,242,1.0,1.0,81,0.00,,,0.00,Wunderground v.1.15,2013-05-18 02:17:00,
2013-05-17 22:22:00,69.9,64.2,30.00,West,266,2.0,2.0,82,0.00,,,0.00,Wunderground v.1.15,2013-05-18 02:22:00,
2013-05-17 22:27:00,69.8,64.4,30.00,West,264,2.0,3.0,83,0.00,,,0.00,Wunderground v.1.15,2013-05-18 02:27:00,
2013-05-17 22:32:00,69.7,64.6,30.01,WSW,256,3.0,6.0,84,0.00,,,0.00,Wunderground v.1.15,2013-05-18 02:32:00,
2013-05-17 22:37:00,69.6,63.5,30.01,WSW,253,5.0,8.0,81,0.00,,,0.00,Wunderground v.1.15,2013-05-18 02:37:00,
2013-05-17 22:42:00,69.7,63.6,30.01,WSW,256,9.0,10.0,81,0.00,,,0.00,Wunderground v.1.15,2013-05-18 02:42:00,
2013-05-17 22:47:00,69.6,63.5,30.01,WSW,241,5.0,7.0,81,0.00,,,0.00,Wunderground v.1.15,2013-05-18 02:47:00,
2013-05-17 22:52:00,69.3,63.6,30.01,WSW,254,2.0,8.0,82,0.00,,,0.00,Wunderground v.1.15,2013-05-18 02:52:00,
2013-05-17 22:57:00,68.9,63.9,30.01,WSW,243,2.0,5.0,84,0.00,,,0.01,Wunderground v.1.15,2013-05-18 02:57:00,
2013-05-17 23:02:00,68.6,63.6,30.01,West,262,2.0,6.0,84,0.00,,,0.01,Wunderground v.1.15,2013-05-18 03:02:00,
2013-05-17 23:07:00,68.3,63.6,30.01,West,269,6.0,7.0,85,0.00,,,0.01,Wunderground v.1.15,2013-05-18 03:07:00,
2013-05-17 23:12:00,68.1,63.8,30.01,West,270,1.0,7.0,86,0.04,,,0.02,Wunderground v.1.15,2013-05-18 03:12:00,
2013-05-17 23:17:00,67.8,63.8,30.01,WSW,249,2.0,3.0,87,0.07,,,0.03,Wunderground v.1.15,2013-05-18 03:17:00,
2013-05-17 23:22:00,67.5,63.8,30.02,West,276,2.0,4.0,88,0.07,,,0.03,Wunderground v.1.15,2013-05-18 03:22:00,
2013-05-17 23:27:00,67.3,64.3,30.02,West,277,1.0,1.0,90,0.08,,,0.04,Wunderground v.1.15,2013-05-18 03:27:00,
2013-05-17 23:32:00,67.0,64.3,30.02,WNW,301,1.0,1.0,91,0.11,,,0.05,Wunderground v.1.15,2013-05-18 03:32:00,
2013-05-17 23:37:00,66.8,64.1,30.02,West,264,2.0,3.0,91,0.08,,,0.05,Wunderground v.1.15,2013-05-18 03:37:00,
2013-05-17 23:42:00,66.7,64.3,30.02,West,267,4.0,5.0,92,0.05,,,0.06,Wunderground v.1.15,2013-05-18 03:42:00,
2013-05-17 23:47:00,66.6,64.2,30.02,West,274,2.0,3.0,92,0.05,,,0.06,Wunderground v.1.15,2013-05-18 03:47:00,
2013-05-17 23:52:00,66.6,64.2,30.02,WSW,245,0.0,3.0,92,0.07,,,0.07,Wunderground v.1.15,2013-05-18 03:52:00,
2013-05-17 23:58:00,66.4,64.0,30.02,West,260,0.0,1.0,92,0.07,,,0.07,Wunderground v.1.15,2013-05-18 03:58:00,